Weather History for Mobile, AL

Change the Weather History Date:

Thursday, September 13, 2012

  Actual Average Record
Temperature  
Mean Temperature 78 °F 78 °F  
Max Temperature 88 °F 88 °F 96 °F (1911)
Min Temperature 67 °F 69 °F 55 °F (1940)
Degree Days  
Heating Degree Days 0 0  
Month to date heating degree days 0 0  
Since 1 July heating degree days 0 0  
Cooling Degree Days 13 13  
Month to date cooling degree days 186 190  
Year to date cooling degree days 2369 2117  
Growing Degree Days 27 (Base 50)    
Moisture  
Dew Point 67 °F    
Average Humidity 72    
Maximum Humidity 93    
Minimum Humidity 50    
Precipitation  
Precipitation 0.00 in 0.17 in 3.76 in (1973)
Month to date precipitation 0.37 2.27  
Year to date precipitation 60.24 49.43  
Sea Level Pressure  
Sea Level Pressure 30.14 in    
Wind  
Wind Speed 6 mph (East)    
Max Wind Speed 14 mph    
Max Gust Speed 23 mph    
Visibility 10 miles    
Events      
T = Trace of Precipitation, MM = Missing Value Source: NWS Daily Summary

Daily Weather History Graph

Daily Weather History Graph

Search for Another Location

Airport:

Trip Planner

Search our weather history database for the weather conditions in past years. The results will help you decide how hot, cold, wet, or windy it might be!

Date:

Astronomy

Sep. 13, 2012 Rise Set
Actual Time 6:36 AM CDT 7:00 PM CDT
Civil Twilight 6:12 AM CDT 7:24 PM CDT
Nautical Twilight 5:43 AM CDT 7:52 PM CDT
Astronomical Twilight 5:15 AM CDT 8:21 PM CDT
Moon 4:03 AM CDT (9/13) 5:17 PM CDT (9/13)
Length of Visible Light 13h 12m
Length of Day
12h 23m
Waning Crescent, 7% of the Moon is Illuminated
Sep 13
Waning Crescent
Sep 15
New
Sep 22
First Quarter
Sep 29
Full
Oct 8
Last Quarter

Hourly Weather History & Observations

Time (CDT) Temp. Heat Index Dew Point Humidity Pressure Visibility Wind Dir Wind Speed Gust Speed Precip Events Conditions
12:56 AM 71.1 °F - 63.0 °F 75% 30.15 in 10.0 mi ENE 5.8 mph - N/A   Partly Cloudy
1:56 AM 71.1 °F - 62.1 °F 73% 30.14 in 10.0 mi ENE 6.9 mph - N/A   Partly Cloudy
2:56 AM 71.1 °F - 62.1 °F 73% 30.12 in 10.0 mi ENE 6.9 mph - N/A   Partly Cloudy
3:56 AM 69.1 °F - 63.0 °F 81% 30.13 in 10.0 mi NE 4.6 mph - N/A   Partly Cloudy
4:56 AM 68.0 °F - 63.0 °F 84% 30.14 in 10.0 mi Calm Calm - N/A   Partly Cloudy
5:56 AM 66.9 °F - 64.0 °F 90% 30.14 in 10.0 mi NE 4.6 mph - N/A   Partly Cloudy
6:56 AM 68.0 °F - 64.9 °F 90% 30.16 in 10.0 mi NE 6.9 mph - N/A   Partly Cloudy
7:56 AM 72.0 °F - 66.0 °F 81% 30.17 in 10.0 mi East 8.1 mph - N/A   Partly Cloudy
8:56 AM 77.0 °F - 68.0 °F 74% 30.17 in 10.0 mi East 10.4 mph - N/A   Partly Cloudy
9:56 AM 81.0 °F 84.4 °F 70.0 °F 69% 30.18 in 10.0 mi ESE 10.4 mph - N/A   Partly Cloudy
10:56 AM 82.9 °F 87.0 °F 70.0 °F 65% 30.19 in 10.0 mi ESE 5.8 mph - N/A   Partly Cloudy
11:56 AM 86.0 °F 90.1 °F 69.1 °F 57% 30.17 in 10.0 mi SE 10.4 mph - N/A   Scattered Clouds
12:56 PM 87.1 °F 89.9 °F 66.9 °F 51% 30.16 in 10.0 mi East 10.4 mph - N/A   Scattered Clouds
1:56 PM 87.1 °F 90.6 °F 68.0 °F 53% 30.13 in 10.0 mi ESE 8.1 mph - N/A   Mostly Cloudy
2:56 PM 88.0 °F 90.7 °F 66.9 °F 49% 30.11 in 10.0 mi ESE 8.1 mph - N/A   Mostly Cloudy
3:56 PM 87.1 °F 89.9 °F 66.9 °F 51% 30.09 in 10.0 mi East 11.5 mph - N/A   Mostly Cloudy
4:56 PM 84.9 °F 87.6 °F 66.9 °F 55% 30.09 in 10.0 mi SE 9.2 mph - N/A   Scattered Clouds
5:56 PM 82.9 °F 85.4 °F 66.9 °F 58% 30.10 in 10.0 mi SSE 9.2 mph - N/A   Scattered Clouds
6:56 PM 79.0 °F - 69.1 °F 72% 30.11 in 10.0 mi SSW 3.5 mph - N/A   Scattered Clouds
7:56 PM 77.0 °F - 69.1 °F 76% 30.12 in 10.0 mi Calm Calm - N/A   Mostly Cloudy
8:56 PM 75.9 °F - 69.1 °F 79% 30.14 in 10.0 mi Calm Calm - N/A   Scattered Clouds
9:56 PM 71.1 °F - 69.1 °F 93% 30.16 in 10.0 mi NNW 3.5 mph - N/A   Partly Cloudy
10:56 PM 73.0 °F - 69.1 °F 87% 30.16 in 10.0 mi NE 4.6 mph - N/A   Partly Cloudy
11:56 PM 72.0 °F - 66.9 °F 84% 30.17 in 10.0 mi NE 4.6 mph - N/A   Partly Cloudy